SALSAT
1 46495U 20068K   25224.47292407  .00007360  00000-0  31088-3 0  9993
2 46495  97.8657 205.5051 0009349 305.6177  54.4187 15.23541958268259
TUBIN
1 48900U 21059X   25224.55035408  .00048218  00000-0  47253-3 0  9990
2 48900  97.6776  39.2437 0002376 358.2867   1.8384 15.65964929230038
LEDSAT
1 49069U 21073D   25224.50327669  .00107037  00000-0  86884-3 0  9999
2 49069  97.3832 309.1104 0008891 198.5994 161.4945 15.70351122221430
CUTE
1 49263U 21088D   25223.63329336  .00033885  00000-0  60998-3 0  9994
2 49263  97.4482 301.8246 0006590  17.9612 342.1871 15.49727087214182
TeikyoSat 4
1 49396U 21102B   25224.59401534  .00002005  00000-0  13457-3 0  9993
2 49396  97.4068 260.7071 0010812 274.5868  85.4126 15.07873456206192
Z-Sat
1 49399U 21102E   25224.56909925  .00003926  00000-0  21388-3 0  9995
2 49399  97.3757 264.1831 0016462 238.7939 121.1680 15.14872364206669
KOSEN 1
1 49402U 21102H   25224.36862945  .00006224  00000-0  28275-3 0  9994
2 49402  97.3656 267.8961 0014888 209.7435 150.2955 15.21025320206988
HO-113
1 50466U 21131B   25224.57974541  .00000482  00000-0  16411-3 0  9996
2 50466  98.5099 313.6201 0003152 315.1818  44.9116 14.40877536190669
SNUGLITE 2
1 52899U 22065F   25224.35756393  .00001130  00000-0  22793-3 0  9995
2 52899  98.1771   5.7429 0006326 273.9062  86.1417 14.63341142165818
UmKA 1 (RS40S)
1 57172U 23091G   25224.58048746  .00006110  00000-0  32084-3 0  9992
2 57172  97.5528 279.6382 0015726 111.9361 248.3545 15.15975927117179
CubeBel-2 (EU11S)
1 57175U 23091K   25224.56682023  .00009937  00000-0  45879-3 0  9991
2 57175  97.5527 281.1774 0013415 117.7990 242.4606 15.20336486117270
VERONIKA
1 58261U 23174F   25224.53000821  .02292564  24242-5  14638-2 0  9996
2 58261  97.4030 315.8451 0013826 263.5530  96.4183 16.17337871 98808
ENSO
1 58470U 23185J   25224.56126310  .00078832  00000-0  86010-3 0  9998
2 58470  97.3677 302.0300 0006890 198.7691 161.3314 15.63093223 95004
EIRSAT-1
1 58472U 23185L   25224.54585862  .00314250  00000-0  11476-2 0  9999
2 58472  97.3585 305.4712 0007620 225.3710 134.6941 15.87603500 95234
SONATE-2
1 59112U 24043Q   25224.63680853  .00018534  00000-0  50278-3 0  9991
2 59112  97.5214 357.2102 0009767 242.1626 117.8629 15.37625633 80171
MO-122
1 60209U 24125G   25224.56868818  .00018001  00000-0  47918-3 0  9998
2 60209  97.2724  75.5368 0016155 266.2564  93.6834 15.38124863 61789
GRBBeta
1 60237U 24128C   25224.27703062  .00004409  00000-0  32991-3 0  9991
2 60237  61.9898 217.3868 0055857  71.0767 289.6368 15.03086325 59777
Curium One
1 60242U 24128H   25224.53389129  .00008002  00000-0  54285-3 0  9993
2 60242  61.9796 213.7921 0055949  67.5497 293.1508 15.05896549 59867
ROBUSTA-3A
1 60243U 24128J   25224.42403585  .00006388  00000-0  44313-3 0  9991
2 60243  61.9866 215.2234 0055086  65.0768 295.6035 15.05378984 59833
CatSat
1 60246U 24125J   25224.54908047  .00017982  00000-0  57318-3 0  9998
2 60246  97.2536  73.9792 0040190 224.3328 135.4693 15.31783253 59774
HYPERVIEW-1G (RS66S)
1 61772U 24199AP  25224.62488539  .00022614  00000-0  60769-3 0  9994
2 61772  97.3433  93.4207 0011399 330.3483  29.7114 15.37855188 86791
AO-123
1 61781U 24199AY  25224.59642555  .00007212  00000-0  25708-3 0  9991
2 61781  97.3455  91.5326 0014682 337.2561  22.8027 15.29113240 86667
ZIMSAT 2
1 61783U 24199BA  25224.61849781  .00042440  00000-0  89431-3 0  9991
2 61783  97.3398  94.5958 0009957 325.0656  34.9938 15.45083386 90023
HADES-R (SO-124)
1 62690U 25009CK  25224.46274683  .00041967  00000-0  13009-2 0  9996
2 62690  97.4053 305.1867 0003258 204.0752 156.0339 15.33298181 31924
HYDRA-T
1 62692U 25009CM  25223.78297778  .00041675  00000-0  12791-2 0  9995
2 62692  97.4062 304.5689 0003138 202.3744 157.7362 15.33616023 31822
JINJUSat 1B
1 63210U 25052A   25224.59790948  .00011987  00000-0  52928-3 0  9997
2 63210  97.4323 117.9344 0006292  97.4765 262.7186 15.21875860 22984
NUSHSAT 1
1 63211U 25052B   25224.44909225  .00013571  00000-0  59232-3 0  9998
2 63211  97.4313 117.8077 0006314 101.5210 258.6735 15.22241636 22964
TEVEL2-4
1 63213U 25052D   25224.60774050  .00012042  00000-0  53157-3 0  9996
2 63213  97.4227 117.7401 0005391 111.7838 248.3972 15.21886866 22983
TEVEL2-5
1 63214U 25052E   25224.14906998  .00011567  00000-0  51140-3 0  9995
2 63214  97.4231 117.2844 0005363 112.6962 247.4841 15.21845240 22911
TEVEL2-6
1 63215U 25052F   25224.61315502  .00011886  00000-0  52581-3 0  9997
2 63215  97.4230 117.7356 0005431 112.3576 247.8236 15.21817970 22986
TEVEL2-1
1 63217U 25052H   25224.43643055  .00012159  00000-0  54161-3 0  9996
2 63217  97.4210 117.4653 0005387 122.0423 238.1337 15.21577346 22954
TEVEL2-3
1 63218U 25052J   25224.43663735  .00012132  00000-0  54033-3 0  9993
2 63218  97.4210 117.4667 0005397 122.6274 237.5483 15.21581534 22950
TEVEL2-2
1 63219U 25052K   25224.50281286  .00011838  00000-0  52745-3 0  9999
2 63219  97.4209 117.5302 0005428 122.2700 237.9062 15.21572918 22965
TEVEL2-9
1 63237U 25052AD  25224.61978226  .00011114  00000-0  51354-3 0  9990
2 63237  97.4270 117.5004 0009354 140.2844 219.9078 15.20314504 22964
TEVEL2-7
1 63238U 25052AE  25224.62495397  .00010877  00000-0  50376-3 0  9993
2 63238  97.4272 117.4972 0009422 140.5142 219.6781 15.20238202 22968
TEVEL2-8
1 63239U 25052AF  25224.62828605  .00011130  00000-0  51585-3 0  9992
2 63239  97.4278 117.4908 0009416 140.9280 219.2637 15.20207891 22960
HYDRA-W
1 63490U 25052BL  25223.94642035  .00029573  00000-0  11402-2 0  9999
2 63490  97.4217 117.5326 0013112 140.2278 219.9924 15.26192040 22911
HADES-ICM (SO-125)
1 63492U 25052BN  25223.65468835  .00027031  00000-0  10629-2 0  9990
2 63492  97.4228 117.1711 0012972 145.2468 214.9620 15.25557255 22862
